Updated20/08/2019 17:05 
 

GeoURL
free counters
Scottish Weather Network UK Weather Network Cumulus Top Weather Sites

Peebles Weather - Skymap

Raw Data, Raw Data Expanded

Ignore low humidity and Dew Point values. Something wrong with the sensor.
Daytime temperatures are in direct sunlight so may be higher than official air temperature values.
As with any other website, we log your IP address and browser type in the server logs for diagnostic reasons. Cookies are used to record visit time and gauges preferences. No personal information is stored or processed.

All times are in local time (GMT, or BST in summer) unless specified.

2019/08/20 15:50 EGPH 201550Z 25013KT 9999 FEW030 16/10 Q1019
20.6°C 0.0 mm 0.0 mm 0.0 mm 4.3 mph 5.4 mph 1015.0 hPa 53% X-Ray Solar Flare Level
Planetary K-Index
Planetary K-Index History
Station Warn Rain Snow Flood Wind Ltng Heat Cold Glob Moon Temp Rain 1h Rain Tue Rain 24h Wind 10m Gust Pressure Hum Proton Levels
Lost sensor contact!!!
0.402 m Waning Gibbous Comfortable F1-W F: A: Kp:0 SSN:0

SkyMap from Weather Underground


2019 08 20 17 05
Up
Click for Other Views

   
   
Star Chart courtesy: Weather Underground

SkyMap from Fourmilab


 

XHTML 1.1 | CSS